Volver al catálogo

SL-16 DEB

ActivoLEO
NORAD 39720·DEBRIS·🇷🇺 Russia

Lanzado Dec 25, 1992 desde Baikonur Cosmodrome

Loading…

Próximos Pases (próximas 24 horas)

TLE

EnvejeciendoSource: Space-Track

Época: Sep 10, 2026, 07:29 UTC

1 39720U 92093KL  26253.31199286  .00001723  00000-0  37750-3 0  9999
2 39720  70.7834 123.1957 0021830  73.7702 286.5841 14.59070799654831

Sigue SL-16 DEB en tiempo real con AllMySat

Download on the App Store